Regional Weather Roundup
Issued by NWS Sterling, VA

Home | Current Version | Previous Version | Graphics & Text | Print | Product List | Glossary On
Versions: 1 2 3 4 5 6 7 8 9 10 11 12 13 14 15 16 17 18 19 20 21 22 23 24 25 26 27 28
000
ASUS41 KLWX 160811
RWRLWX

REGIONAL WEATHER ROUNDUP
NATIONAL WEATHER SERVICE BALTIMORE MD/WASHINGTON DC
300 AM EST TUE JAN 16 2018

Note: "FAIR" indicates few or no clouds below 12,000 feet
with no significant weather and/or obstructions to visibility.
 TC=TEMPERATURE CELSIUS

 * =Non NWS site. Station does not report precipitation (e.g. rain,
    snow, etc.), thunder, or fog.

DCZ001-MDZ009-015-VAZ040>042-051-053>054-160900-
WASHINGTON METRO

CITY           SKY/WX    TMP DP  RH WIND       PRES   REMARKS
WASHINGTON NAT CLOUDY    31  28  89 S5        30.47S WCI  26
DULLES         MOCLDY    27  26  96 CALM      30.44F
ANDREWS AFB    CLOUDY    28  26  94 CALM      30.44S FOG
FT BELVOIR     CLOUDY    29  27  91 CALM      30.46S
QUANTICO       CLOUDY    30  27  88 CALM      30.47F
COLLEGE PARK*  CLOUDY    29  26  88 CALM      30.46F
LEESBURG*      CLOUDY    28  28 100 CALM      30.45S
MANASSAS*      FAIR      22  20  92 CALM      30.46S
GAITHERSBURG*  CLOUDY    28  25  88 S3        30.44R

$$

MDZ006>007-011-014-160900-
BALTIMORE METRO

CITY           SKY/WX    TMP DP  RH WIND       PRES   REMARKS
BWI AIRPORT    CLOUDY    29  24  82 CALM      30.46R
MD SCIENCE CTR   N/A     31  25  78 MISG      30.47R
MARTIN STATE   CLOUDY    32  27  80 CALM      30.49R
ANNAPOLIS      CLOUDY    31  27  85 NW3       30.48R FOG
FORT MEADE*    CLOUDY    28  27  93 CALM      30.48S

$$

MDZ012-015-019>023-160900-
MARYLAND EASTERN SHORE

CITY           SKY/WX    TMP DP  RH WIND       PRES   REMARKS
OCEAN CITY     FAIR      29  29 100 NW5       30.45R FOG     WCI  24
SALISBURY      CLOUDY    27  27 100 NW5       30.45R WCI  22
BAY BRIDGE AP* CLOUDY    28  25  86 MISG      30.48R
CAMBRIDGE*     CLOUDY    30  27  86 NW7       30.47R WCI  23
EASTON*        CLOUDY    30  24  78 CALM      30.51R

$$

MDZ017>025-160900-
SOUTHERN MARYLAND

CITY           SKY/WX    TMP DP  RH WIND       PRES   REMARKS
PATUXENT RIVER CLOUDY    29  29 100 N7        30.47R FOG     WCI  22
ST INIGOES     CLOUDY    30  28  92 CALM      30.46R FOG
LEONARDTOWN*   CLOUDY    30  28  93 CALM      30.48R

$$

MDZ003>005-160900-
NORTH CENTRAL MARYLAND

CITY           SKY/WX    TMP DP  RH WIND       PRES   REMARKS
FREDERICK*     CLOUDY    28  21  74 CALM      30.47F
HAGERSTOWN APT CLOUDY    27  23  85 S6        30.40S WCI  20
WESTMINSTER*   CLOUDY    28  27  93 S7        30.41S WCI  21

$$

MDZ501>502-160900-
WESTERN MARYLAND

CITY           SKY/WX    TMP DP  RH WIND       PRES   REMARKS
OAKLAND*       CLOUDY    23  21  93 SW3       30.22R
CUMBERLAND*    FAIR     N/A N/A N/A CALM      30.42S

$$

VAZ025>031-160900-
SHENANDOAH VALLEY

CITY           SKY/WX    TMP DP  RH WIND       PRES   REMARKS
WINCHESTER*      N/A    N/A N/A N/A MISG        N/A
FRONT ROYAL*   FAIR      21  18  86 MISG      30.38F
LURAY*         FAIR      23  19  86 CALM      30.38S
NEW MARKET*    FAIR      20  15  81 CALM      30.38R
STAUNTON*      MOCLDY    24  13  64 CALM      30.39S
WAYNESBORO*    MOCLDY    23   9  55 CALM      30.36R

$$

WVZ021-048>050-054>055-160900-
EASTERN WEST VIRGINIA PANHANDLE

CITY           SKY/WX    TMP DP  RH WIND       PRES   REMARKS
MARTINSBURG    MOCLDY    25  20  81 CALM      30.40F
PETERSBURG*    FAIR      19  16  87 CALM      30.38R

$$

VAZ036>039-050-160900-
CENTRAL FOOTHILLS

CITY           SKY/WX    TMP DP  RH WIND       PRES   REMARKS
CHARLOTTESVILL FAIR      25  14  63 CALM      30.41F
CULPEPER*      FAIR      25  21  86 CALM      30.45S
ORANGE*        FAIR      23  19  86 CALM      30.43F
GORDONSVILLE*  FAIR      22  21  95 CALM      30.42S
WARRENTON*     CLOUDY    26  22  87 CALM      30.43F

$$

VAZ055>057-160900-
NORTH AND CENTRAL PIEDMONT

CITY           SKY/WX    TMP DP  RH WIND       PRES   REMARKS
FREDERICKSBRG* CLOUDY    28  28  99 CALM      30.46S
STAFFORD*      MOCLDY    26  26 100 CALM      30.49S

$$

NCZ024-NYZ072-PAZ021-071-VAZ022-071-160900-
OTHER REGIONAL OBSERVATIONS

CITY           SKY/WX    TMP DP  RH WIND       PRES   REMARKS
NEW YORK CITY  CLOUDY    25  20  81 VRB3      30.52R
PHILADELPHIA   CLOUDY    30  23  75 NE6       30.49S WCI  24
PITTSBURGH     LGT SNOW  26  24  92 SW6       30.30R FOG     WCI  19
ROANOKE        FAIR      24  15  68 NW3       30.41S
RICHMOND       CLOUDY    27  26  96 CALM      30.45S FOG
RALEIGH        FAIR      21  16  81 CALM      30.45R

$$

ANZ530>537-160900-
MARINE OBSERVATIONS

STATION/POSITION TIME  TEMP    WIND        PRES
                       AIR SEA DIR/SP/G
                 (UTC) (F)     (DEG/KT/KT) (MB)
THOMAS PT LIGHT  0800   28 32  330/  3/  4   N/A
BALT KEY BRIDGE  0742   29     260/  3/  3 1032.3R
COVE POINT       0742   28     350/  7/  9 1032.4R
LEWISETTA        0742   29 32  330/  6/  7 1031.6S
SOLOMONS ISLAND  0742   29 34  320/  5/  7 1031.4S
PINEY POINT      0748          350/  6/  7   N/A

$$





USA.gov is the U.S. government's official web portal to all federal, state and local government web resources and services.